Time,TemperatureF,DewpointF,PressureIn,WindDirection,WindDirectionDegrees,WindSpeedMPH,WindSpeedGustMPH,Humidity,HourlyPrecipIn,Conditions,Clouds,dailyrainin,SoftwareType,DateUTC
2013-03-06 00:00:00,36.7,30.8,29.61,SSW,213,2.7,5.4,79,0.12,,,0.00,VWS V14.00,2013-03-06 05:00:00,
2013-03-06 00:05:00,36.7,30.8,29.61,WSW,241,5.4,5.8,79,0.12,,,0.00,VWS V14.00,2013-03-06 05:05:00,
2013-03-06 00:10:00,36.5,30.3,29.61,SW,231,2.7,5.8,78,0.12,,,0.00,VWS V14.00,2013-03-06 05:10:00,
2013-03-06 00:15:00,36.5,30.6,29.61,SW,225,3.6,4.0,79,0.08,,,0.00,VWS V14.00,2013-03-06 05:15:00,
2013-03-06 00:20:00,36.3,30.4,29.61,SW,223,3.6,5.4,79,0.08,,,0.00,VWS V14.00,2013-03-06 05:20:00,
2013-03-06 00:25:00,36.3,30.4,29.61,SW,227,3.6,3.6,79,0.08,,,0.00,VWS V14.00,2013-03-06 05:25:00,
2013-03-06 00:30:00,36.3,30.4,29.61,SW,221,3.6,3.6,79,0.04,,,0.00,VWS V14.00,2013-03-06 05:30:00,
2013-03-06 00:35:00,36.1,30.3,29.61,SW,224,3.1,3.1,79,0.04,,,0.00,VWS V14.00,2013-03-06 05:35:00,
2013-03-06 00:40:00,36.1,30.3,29.61,SW,225,0.0,3.1,79,0.04,,,0.00,VWS V14.00,2013-03-06 05:40:00,
2013-03-06 00:45:00,36.1,30.3,29.61,SW,221,2.7,3.1,79,0.04,,,0.00,VWS V14.00,2013-03-06 05:45:00,
2013-03-06 00:51:00,36.0,30.4,29.58,SW,229,2.2,2.7,80,0.04,,,0.00,VWS V14.00,2013-03-06 05:51:00,
2013-03-06 00:56:00,36.0,30.4,29.58,SW,223,2.2,2.2,80,0.00,,,0.00,VWS V14.00,2013-03-06 05:56:00,
2013-03-06 01:01:00,36.0,30.4,29.58,SW,221,0.0,0.0,80,0.00,,,0.00,VWS V14.00,2013-03-06 06:01:00,
2013-03-06 01:06:00,36.0,30.7,29.58,SSW,210,0.0,0.0,81,0.00,,,0.00,VWS V14.00,2013-03-06 06:06:00,
2013-03-06 01:11:00,36.1,30.9,29.58,SSW,210,0.0,0.0,81,0.00,,,0.00,VWS V14.00,2013-03-06 06:11:00,
2013-03-06 01:16:00,36.1,30.9,29.58,WSW,249,0.0,0.0,81,0.00,,,0.00,VWS V14.00,2013-03-06 06:16:00,
2013-03-06 01:21:00,36.1,30.9,29.61,SSW,201,0.0,0.0,81,0.00,,,0.00,VWS V14.00,2013-03-06 06:21:00,
2013-03-06 01:26:00,36.1,30.9,29.61,SSW,202,0.0,0.0,81,0.00,,,0.00,VWS V14.00,2013-03-06 06:26:00,
2013-03-06 01:31:00,36.1,30.9,29.61,SSE,163,0.0,0.0,81,0.00,,,0.00,VWS V14.00,2013-03-06 06:31:00,
2013-03-06 01:36:00,36.1,30.9,29.61,SE,133,0.0,0.0,81,0.00,,,0.00,VWS V14.00,2013-03-06 06:36:00,
2013-03-06 01:41:00,36.3,30.8,29.61,ESE,117,0.0,0.0,80,0.00,,,0.00,VWS V14.00,2013-03-06 06:41:00,
2013-03-06 01:46:00,36.1,30.6,29.61,SE,125,0.0,0.0,80,0.00,,,0.00,VWS V14.00,2013-03-06 06:46:00,
2013-03-06 01:51:00,35.8,29.9,29.61,East,88,0.0,0.0,79,0.00,,,0.00,VWS V14.00,2013-03-06 06:51:00,
2013-03-06 01:56:00,35.6,29.7,29.61,SSE,164,0.0,2.7,79,0.04,,,0.04,VWS V14.00,2013-03-06 06:56:00,
2013-03-06 02:01:00,35.2,29.4,29.61,SE,128,0.0,0.0,79,0.04,,,0.04,VWS V14.00,2013-03-06 07:01:00,
2013-03-06 02:06:00,34.9,29.0,29.61,SSE,164,3.1,3.1,79,0.04,,,0.04,VWS V14.00,2013-03-06 07:06:00,
2013-03-06 02:11:00,34.5,28.7,29.61,East,97,0.0,0.0,79,0.04,,,0.04,VWS V14.00,2013-03-06 07:11:00,
2013-03-06 02:16:00,34.3,28.5,29.61,West,262,0.0,0.0,79,0.04,,,0.04,VWS V14.00,2013-03-06 07:16:00,
2013-03-06 02:21:00,34.2,28.3,29.61,SSE,155,0.0,0.0,79,0.04,,,0.04,VWS V14.00,2013-03-06 07:21:00,
2013-03-06 02:26:00,34.2,28.3,29.61,West,263,0.0,0.0,79,0.04,,,0.04,VWS V14.00,2013-03-06 07:26:00,
2013-03-06 02:31:00,34.0,28.2,29.61,West,262,0.0,0.0,79,0.04,,,0.04,VWS V14.00,2013-03-06 07:31:00,
2013-03-06 02:36:00,33.8,28.0,29.61,SE,136,2.7,2.7,79,0.04,,,0.04,VWS V14.00,2013-03-06 07:36:00,
2013-03-06 02:41:00,33.8,28.0,29.61,NNW,340,0.0,0.0,79,0.04,,,0.04,VWS V14.00,2013-03-06 07:41:00,
2013-03-06 02:46:00,33.8,28.0,29.61,WNW,285,0.0,0.0,79,0.04,,,0.04,VWS V14.00,2013-03-06 07:46:00,
2013-03-06 02:51:00,33.8,28.0,29.61,South,181,0.0,0.0,79,0.04,,,0.04,VWS V14.00,2013-03-06 07:51:00,
2013-03-06 02:56:00,33.8,28.0,29.61,SSE,158,0.0,2.2,79,0.00,,,0.04,VWS V14.00,2013-03-06 07:56:00,
2013-03-06 03:01:00,33.8,28.0,29.61,SSW,193,0.0,0.0,79,0.00,,,0.04,VWS V14.00,2013-03-06 08:01:00,
2013-03-06 03:06:00,33.8,28.0,29.61,West,271,0.0,0.0,79,0.00,,,0.04,VWS V14.00,2013-03-06 08:06:00,
2013-03-06 03:11:00,34.0,28.2,29.61,South,187,2.7,2.7,79,0.00,,,0.04,VWS V14.00,2013-03-06 08:11:00,
2013-03-06 03:16:00,33.8,28.0,29.61,SSW,194,0.0,0.0,79,0.00,,,0.04,VWS V14.00,2013-03-06 08:16:00,
2013-03-06 03:21:00,33.8,28.0,29.61,ESE,111,0.0,0.0,79,0.00,,,0.04,VWS V14.00,2013-03-06 08:21:00,
2013-03-06 03:26:00,33.8,28.0,29.61,SE,130,0.0,0.0,79,0.00,,,0.04,VWS V14.00,2013-03-06 08:26:00,
2013-03-06 03:31:00,33.8,28.0,29.61,SE,136,0.0,0.0,79,0.00,,,0.04,VWS V14.00,2013-03-06 08:31:00,
2013-03-06 03:36:00,34.0,28.5,29.61,SSW,197,0.0,0.0,80,0.00,,,0.04,VWS V14.00,2013-03-06 08:36:00,
2013-03-06 03:41:00,34.0,28.5,29.61,SSE,164,0.0,0.0,80,0.00,,,0.04,VWS V14.00,2013-03-06 08:41:00,
2013-03-06 03:46:00,34.0,28.5,29.61,ESE,118,0.0,0.0,80,0.00,,,0.04,VWS V14.00,2013-03-06 08:46:00,
2013-03-06 03:51:00,34.0,28.5,29.61,ESE,102,0.0,0.0,80,0.04,,,0.08,VWS V14.00,2013-03-06 08:51:00,
2013-03-06 03:56:00,34.2,28.6,29.61,ESE,118,0.0,0.0,80,0.04,,,0.08,VWS V14.00,2013-03-06 08:56:00,
2013-03-06 04:01:00,34.2,28.6,29.61,ENE,62,0.0,0.0,80,0.04,,,0.08,VWS V14.00,2013-03-06 09:01:00,
2013-03-06 04:06:00,34.2,28.6,29.61,East,79,0.0,0.0,80,0.04,,,0.08,VWS V14.00,2013-03-06 09:06:00,
2013-03-06 04:11:00,34.2,29.0,29.61,East,99,0.0,0.0,81,0.04,,,0.08,VWS V14.00,2013-03-06 09:11:00,
2013-03-06 04:16:00,34.3,29.1,29.61,East,99,0.0,0.0,81,0.04,,,0.08,VWS V14.00,2013-03-06 09:16:00,
2013-03-06 04:21:00,34.3,29.1,29.61,ESE,109,0.0,0.0,81,0.04,,,0.08,VWS V14.00,2013-03-06 09:21:00,
2013-03-06 04:26:00,34.2,29.0,29.61,East,88,0.0,0.0,81,0.04,,,0.08,VWS V14.00,2013-03-06 09:26:00,
2013-03-06 04:31:00,34.3,29.1,29.61,ESE,111,3.1,3.6,81,0.04,,,0.08,VWS V14.00,2013-03-06 09:31:00,
2013-03-06 04:36:00,34.3,29.4,29.61,SE,127,3.6,3.6,82,0.04,,,0.08,VWS V14.00,2013-03-06 09:36:00,
2013-03-06 04:41:00,34.3,29.4,29.61,ESE,103,6.3,6.3,82,0.04,,,0.08,VWS V14.00,2013-03-06 09:41:00,
2013-03-06 04:46:00,34.3,29.4,29.61,ESE,106,0.0,3.1,82,0.04,,,0.08,VWS V14.00,2013-03-06 09:46:00,
2013-03-06 04:51:00,34.3,29.4,29.61,SSE,154,0.0,0.0,82,0.00,,,0.08,VWS V14.00,2013-03-06 09:51:00,
2013-03-06 04:56:00,34.3,29.4,29.61,East,81,3.1,3.1,82,0.00,,,0.08,VWS V14.00,2013-03-06 09:56:00,
2013-03-06 05:01:00,34.2,29.2,29.61,SE,130,0.0,0.0,82,0.00,,,0.08,VWS V14.00,2013-03-06 10:01:00,
2013-03-06 05:06:00,34.2,29.2,29.61,SSE,159,0.0,2.2,82,0.00,,,0.08,VWS V14.00,2013-03-06 10:06:00,
2013-03-06 05:12:00,34.2,29.2,29.61,ESE,112,0.0,0.0,82,0.00,,,0.08,VWS V14.00,2013-03-06 10:12:00,
2013-03-06 05:17:00,34.0,28.8,29.61,SSE,153,0.0,0.0,81,0.00,,,0.08,VWS V14.00,2013-03-06 10:17:00,
2013-03-06 05:22:00,34.0,28.8,29.61,SE,131,0.0,0.0,81,0.00,,,0.08,VWS V14.00,2013-03-06 10:22:00,
2013-03-06 05:27:00,34.0,28.8,29.61,SE,124,0.0,0.0,81,0.00,,,0.08,VWS V14.00,2013-03-06 10:27:00,
2013-03-06 05:32:00,33.8,28.6,29.61,East,101,0.0,0.0,81,0.00,,,0.08,VWS V14.00,2013-03-06 10:32:00,
2013-03-06 05:37:00,33.8,28.6,29.64,ESE,115,0.0,0.0,81,0.00,,,0.08,VWS V14.00,2013-03-06 10:37:00,
2013-03-06 05:42:00,33.8,28.6,29.64,East,83,0.0,0.0,81,0.00,,,0.08,VWS V14.00,2013-03-06 10:42:00,
2013-03-06 05:47:00,33.8,28.6,29.64,ESE,113,0.0,0.0,81,0.00,,,0.08,VWS V14.00,2013-03-06 10:47:00,
2013-03-06 05:52:00,33.6,28.4,29.64,ESE,113,0.0,0.0,81,0.00,,,0.08,VWS V14.00,2013-03-06 10:52:00,
2013-03-06 05:57:00,33.6,28.4,29.64,SE,132,0.0,0.0,81,0.00,,,0.08,VWS V14.00,2013-03-06 10:57:00,
2013-03-06 06:02:00,33.6,28.4,29.64,SE,132,0.0,0.0,81,0.00,,,0.08,VWS V14.00,2013-03-06 11:02:00,
2013-03-06 06:07:00,33.6,28.4,29.64,ESE,109,0.0,0.0,81,0.00,,,0.08,VWS V14.00,2013-03-06 11:07:00,
2013-03-06 06:12:00,33.6,28.4,29.64,East,83,0.0,0.0,81,0.00,,,0.08,VWS V14.00,2013-03-06 11:12:00,
2013-03-06 06:17:00,33.6,28.4,29.64,East,83,0.0,0.0,81,0.00,,,0.08,VWS V14.00,2013-03-06 11:17:00,
2013-03-06 06:22:00,33.6,28.4,29.64,ESE,112,0.0,0.0,81,0.00,,,0.08,VWS V14.00,2013-03-06 11:22:00,
2013-03-06 06:27:00,33.6,28.4,29.64,ESE,112,0.0,0.0,81,0.00,,,0.08,VWS V14.00,2013-03-06 11:27:00,
2013-03-06 06:32:00,33.6,28.4,29.64,ESE,112,0.0,0.0,81,0.00,,,0.08,VWS V14.00,2013-03-06 11:32:00,
2013-03-06 06:37:00,33.6,28.4,29.64,SE,139,0.0,0.0,81,0.00,,,0.08,VWS V14.00,2013-03-06 11:37:00,
2013-03-06 06:42:00,33.6,28.7,29.64,ESE,122,0.0,0.0,82,0.00,,,0.08,VWS V14.00,2013-03-06 11:42:00,
2013-03-06 06:47:00,33.6,28.4,29.64,ESE,113,0.0,0.0,81,0.00,,,0.08,VWS V14.00,2013-03-06 11:47:00,
2013-03-06 06:52:00,33.6,28.4,29.64,East,96,0.0,0.0,81,0.00,,,0.08,VWS V14.00,2013-03-06 11:52:00,
2013-03-06 06:57:00,33.6,28.4,29.64,SSE,164,2.2,3.1,81,0.00,,,0.08,VWS V14.00,2013-03-06 11:57:00,
2013-03-06 07:02:00,33.6,28.4,29.64,ESE,118,0.0,0.0,81,0.00,,,0.08,VWS V14.00,2013-03-06 12:02:00,
2013-03-06 07:07:00,33.6,28.4,29.64,SE,140,2.2,2.2,81,0.00,,,0.08,VWS V14.00,2013-03-06 12:07:00,
2013-03-06 07:12:00,33.4,27.9,29.64,East,100,0.0,0.0,80,0.00,,,0.08,VWS V14.00,2013-03-06 12:12:00,
2013-03-06 07:17:00,33.4,27.6,29.64,ESE,105,2.2,2.2,79,0.00,,,0.08,VWS V14.00,2013-03-06 12:17:00,
2013-03-06 07:22:00,33.6,27.5,29.67,SSE,154,0.0,0.0,78,0.00,,,0.08,VWS V14.00,2013-03-06 12:22:00,
2013-03-06 07:27:00,33.6,26.9,29.67,SE,129,2.7,2.7,76,0.00,,,0.08,VWS V14.00,2013-03-06 12:27:00,
2013-03-06 07:33:00,33.6,26.2,29.67,SE,125,2.2,2.7,74,0.00,,,0.08,VWS V14.00,2013-03-06 12:33:00,
2013-03-06 07:38:00,33.6,25.2,29.67,SSW,207,3.1,3.1,71,0.00,,,0.08,VWS V14.00,2013-03-06 12:38:00,
2013-03-06 07:43:00,33.6,24.2,29.67,SE,124,2.7,3.6,68,0.00,,,0.08,VWS V14.00,2013-03-06 12:43:00,
2013-03-06 07:48:00,33.8,22.9,29.67,East,81,0.0,3.6,64,0.00,,,0.08,VWS V14.00,2013-03-06 12:48:00,
2013-03-06 07:53:00,33.8,22.2,29.67,East,100,0.0,0.0,62,0.00,,,0.08,VWS V14.00,2013-03-06 12:53:00,
2013-03-06 07:58:00,34.0,21.2,29.67,East,95,0.0,0.0,59,0.00,,,0.08,VWS V14.00,2013-03-06 12:58:00,
2013-03-06 08:03:00,34.0,20.4,29.67,SE,132,4.0,4.0,57,0.00,,,0.08,VWS V14.00,2013-03-06 13:03:00,
2013-03-06 08:08:00,34.0,20.0,29.67,ENE,64,0.0,4.0,56,0.00,,,0.08,VWS V14.00,2013-03-06 13:08:00,
2013-03-06 08:13:00,34.0,19.5,29.67,SE,134,0.0,0.0,55,0.00,,,0.08,VWS V14.00,2013-03-06 13:13:00,
2013-03-06 08:18:00,34.0,19.5,29.67,ESE,106,0.0,0.0,55,0.00,,,0.08,VWS V14.00,2013-03-06 13:18:00,
2013-03-06 08:23:00,34.0,18.2,29.67,East,82,0.0,0.0,52,0.00,,,0.08,VWS V14.00,2013-03-06 13:23:00,
2013-03-06 08:28:00,34.0,18.2,29.67,ESE,114,0.0,0.0,52,0.00,,,0.08,VWS V14.00,2013-03-06 13:28:00,
2013-03-06 08:33:00,34.0,17.8,29.67,SE,130,0.0,0.0,51,0.00,,,0.08,VWS V14.00,2013-03-06 13:33:00,
2013-03-06 08:38:00,34.2,17.5,29.67,South,179,0.0,0.0,50,0.00,,,0.08,VWS V14.00,2013-03-06 13:38:00,
2013-03-06 08:43:00,34.3,16.2,29.67,SSE,160,0.0,0.0,47,0.00,,,0.08,VWS V14.00,2013-03-06 13:43:00,
2013-03-06 08:48:00,34.9,18.1,29.70,SE,129,0.0,0.0,50,0.00,,,0.08,VWS V14.00,2013-03-06 13:48:00,
2013-03-06 08:53:00,35.1,18.3,29.70,SE,141,0.0,0.0,50,0.00,,,0.08,VWS V14.00,2013-03-06 13:53:00,
2013-03-06 08:58:00,35.4,18.6,29.70,NE,48,0.0,0.0,50,0.00,,,0.08,VWS V14.00,2013-03-06 13:58:00,
2013-03-06 09:03:00,35.4,18.6,29.70,ENE,77,0.0,0.0,50,0.00,,,0.08,VWS V14.00,2013-03-06 14:03:00,
2013-03-06 09:08:00,35.4,16.7,29.70,SE,124,0.0,0.0,46,0.00,,,0.08,VWS V14.00,2013-03-06 14:08:00,
2013-03-06 09:13:00,35.4,14.6,29.70,ESE,118,0.0,0.0,42,0.00,,,0.08,VWS V14.00,2013-03-06 14:13:00,
2013-03-06 09:18:00,35.6,16.4,29.70,SE,138,0.0,0.0,45,0.00,,,0.08,VWS V14.00,2013-03-06 14:18:00,
2013-03-06 09:23:00,35.8,18.0,29.70,ESE,102,0.0,0.0,48,0.00,,,0.08,VWS V14.00,2013-03-06 14:23:00,
2013-03-06 09:28:00,35.8,16.0,29.70,ESE,113,7.6,7.6,44,0.00,,,0.08,VWS V14.00,2013-03-06 14:28:00,
2013-03-06 09:33:00,35.8,16.0,29.70,ENE,75,4.9,7.2,44,0.00,,,0.08,VWS V14.00,2013-03-06 14:33:00,
2013-03-06 09:38:00,35.8,14.9,29.70,SE,141,3.6,5.8,42,0.00,,,0.08,VWS V14.00,2013-03-06 14:38:00,
2013-03-06 09:43:00,36.0,15.1,29.70,SSE,155,4.0,5.8,42,0.00,,,0.08,VWS V14.00,2013-03-06 14:43:00,
2013-03-06 09:48:00,36.1,15.8,29.70,East,90,4.0,4.9,43,0.00,,,0.08,VWS V14.00,2013-03-06 14:48:00,
2013-03-06 09:53:00,36.7,15.2,29.70,SE,136,4.0,6.3,41,0.00,,,0.08,VWS V14.00,2013-03-06 14:53:00,
2013-03-06 09:58:00,37.0,15.5,29.70,SSE,155,3.1,4.0,41,0.00,,,0.08,VWS V14.00,2013-03-06 14:58:00,
2013-03-06 10:03:00,37.2,17.3,29.70,ESE,122,7.6,8.1,44,0.00,,,0.08,VWS V14.00,2013-03-06 15:03:00,
2013-03-06 10:08:00,36.9,14.8,29.70,SE,133,7.2,9.6,40,0.00,,,0.08,VWS V14.00,2013-03-06 15:08:00,
2013-03-06 10:13:00,36.9,15.4,29.70,ENE,70,5.8,5.8,41,0.00,,,0.08,VWS V14.00,2013-03-06 15:13:00,
2013-03-06 10:18:00,37.6,16.0,29.70,SE,133,4.0,4.9,41,0.00,,,0.08,VWS V14.00,2013-03-06 15:18:00,
2013-03-06 10:23:00,38.8,17.2,29.70,SE,124,4.9,8.1,41,0.00,,,0.08,VWS V14.00,2013-03-06 15:23:00,
2013-03-06 10:28:00,39.4,16.5,29.70,ESE,116,4.0,10.1,39,0.00,,,0.08,VWS V14.00,2013-03-06 15:28:00,
2013-03-06 10:33:00,40.3,17.9,29.70,SE,144,2.2,5.8,40,0.00,,,0.08,VWS V14.00,2013-03-06 15:33:00,
2013-03-06 10:38:00,40.6,17.6,29.70,ENE,67,5.8,7.6,39,0.00,,,0.08,VWS V14.00,2013-03-06 15:38:00,
2013-03-06 10:43:00,40.3,16.1,29.70,ESE,119,3.6,5.4,37,0.00,,,0.08,VWS V14.00,2013-03-06 15:43:00,
2013-03-06 10:48:00,40.3,17.3,29.70,NE,56,8.3,8.3,39,0.00,,,0.08,VWS V14.00,2013-03-06 15:48:00,
2013-03-06 10:53:00,40.6,16.4,29.70,ESE,122,5.8,8.1,37,0.00,,,0.08,VWS V14.00,2013-03-06 15:53:00,
2013-03-06 10:58:00,41.0,15.5,29.70,East,84,8.3,8.3,35,0.00,,,0.08,VWS V14.00,2013-03-06 15:58:00,
2013-03-06 11:03:00,41.2,15.6,29.70,SE,127,4.0,7.2,35,0.00,,,0.08,VWS V14.00,2013-03-06 16:03:00,
2013-03-06 11:08:00,41.0,14.1,29.70,South,169,4.0,6.3,33,0.00,,,0.08,VWS V14.00,2013-03-06 16:08:00,
2013-03-06 11:13:00,41.2,16.9,29.70,West,264,6.3,6.3,37,0.00,,,0.08,VWS V14.00,2013-03-06 16:13:00,
2013-03-06 11:18:00,42.3,16.6,29.70,SW,215,3.6,3.6,35,0.00,,,0.08,VWS V14.00,2013-03-06 16:18:00,
2013-03-06 11:23:00,43.0,16.5,29.70,East,95,3.6,5.8,34,0.00,,,0.08,VWS V14.00,2013-03-06 16:23:00,
2013-03-06 11:28:00,42.8,14.3,29.70,SSE,153,4.9,5.4,31,0.00,,,0.08,VWS V14.00,2013-03-06 16:28:00,
2013-03-06 11:33:00,42.4,14.7,29.70,SE,133,3.1,5.4,32,0.00,,,0.08,VWS V14.00,2013-03-06 16:33:00,
2013-03-06 11:38:00,42.1,15.1,29.70,West,272,5.4,7.2,33,0.00,,,0.08,VWS V14.00,2013-03-06 16:38:00,
2013-03-06 11:43:00,41.7,15.4,29.70,NE,35,6.3,13.2,34,0.00,,,0.08,VWS V14.00,2013-03-06 16:43:00,
2013-03-06 11:48:00,41.4,15.1,29.72,SW,232,8.3,8.3,34,0.00,,,0.08,VWS V14.00,2013-03-06 16:48:00,
2013-03-06 11:53:00,41.0,14.8,29.72,SE,133,6.3,9.6,34,0.00,,,0.08,VWS V14.00,2013-03-06 16:53:00,
2013-03-06 11:58:00,41.0,14.8,29.72,SE,141,7.6,10.5,34,0.00,,,0.08,VWS V14.00,2013-03-06 16:58:00,
2013-03-06 12:03:00,40.8,15.3,29.72,SE,145,5.4,9.6,35,0.00,,,0.08,VWS V14.00,2013-03-06 17:03:00,
2013-03-06 12:08:00,40.8,15.9,29.72,ESE,122,4.9,6.3,36,0.00,,,0.08,VWS V14.00,2013-03-06 17:08:00,
2013-03-06 12:13:00,42.1,16.4,29.72,SSE,162,6.3,8.1,35,0.00,,,0.08,VWS V14.00,2013-03-06 17:13:00,
2013-03-06 12:18:00,43.3,16.2,29.72,SSW,194,5.8,8.1,33,0.00,,,0.08,VWS V14.00,2013-03-06 17:18:00,
2013-03-06 12:23:00,43.7,15.1,29.72,NE,50,6.7,6.7,31,0.00,,,0.08,VWS V14.00,2013-03-06 17:23:00,
2013-03-06 12:28:00,43.7,15.1,29.72,SSE,156,6.3,6.3,31,0.00,,,0.08,VWS V14.00,2013-03-06 17:28:00,
2013-03-06 12:33:00,44.1,15.4,29.70,SW,220,6.3,6.3,31,0.00,,,0.08,VWS V14.00,2013-03-06 17:33:00,
2013-03-06 12:38:00,44.2,14.8,29.70,SE,136,6.3,7.6,30,0.00,,,0.08,VWS V14.00,2013-03-06 17:38:00,
2013-03-06 12:43:00,44.2,14.8,29.70,SE,125,4.0,6.3,30,0.00,,,0.08,VWS V14.00,2013-03-06 17:43:00,
2013-03-06 12:48:00,43.3,14.8,29.70,SE,144,4.0,6.3,31,0.00,,,0.08,VWS V14.00,2013-03-06 17:48:00,
2013-03-06 12:53:00,43.3,14.8,29.70,ESE,111,3.1,7.6,31,0.00,,,0.08,VWS V14.00,2013-03-06 17:53:00,
2013-03-06 12:58:00,44.1,15.4,29.70,WSW,249,3.6,4.0,31,0.00,,,0.08,VWS V14.00,2013-03-06 17:58:00,
2013-03-06 13:03:00,44.8,15.3,29.70,ESE,104,4.9,4.9,30,0.00,,,0.08,VWS V14.00,2013-03-06 18:03:00,
2013-03-06 13:10:00,44.4,15.7,29.70,ENE,61,3.1,4.0,31,0.00,,,0.08,VWS V14.00,2013-03-06 18:10:00,
2013-03-06 13:15:00,43.9,15.2,29.70,East,93,3.6,3.6,31,0.00,,,0.08,VWS V14.00,2013-03-06 18:15:00,
2013-03-06 13:20:00,44.1,14.6,29.70,SSW,210,4.9,8.7,30,0.00,,,0.08,VWS V14.00,2013-03-06 18:20:00,
2013-03-06 13:25:00,45.7,16.8,29.70,SE,142,3.1,5.8,31,0.00,,,0.08,VWS V14.00,2013-03-06 18:25:00,
2013-03-06 13:30:00,46.4,15.9,29.70,ESE,104,5.8,6.3,29,0.00,,,0.08,VWS V14.00,2013-03-06 18:30:00,
2013-03-06 13:35:00,46.2,15.7,29.70,South,170,5.4,5.4,29,0.00,,,0.08,VWS V14.00,2013-03-06 18:35:00,
2013-03-06 13:40:00,46.6,16.0,29.70,SSE,157,4.0,4.0,29,0.00,,,0.08,VWS V14.00,2013-03-06 18:40:00,
2013-03-06 13:45:00,47.3,15.9,29.70,SW,230,4.0,5.8,28,0.00,,,0.08,VWS V14.00,2013-03-06 18:45:00,
2013-03-06 13:50:00,46.8,15.4,29.70,SSW,194,5.4,7.2,28,0.00,,,0.08,VWS V14.00,2013-03-06 18:50:00,
2013-03-06 13:55:00,45.9,14.6,29.70,SSW,208,5.4,6.3,28,0.00,,,0.08,VWS V14.00,2013-03-06 18:55:00,
2013-03-06 14:00:00,45.3,14.1,29.70,SSW,204,5.4,7.6,28,0.00,,,0.08,VWS V14.00,2013-03-06 19:00:00,
2013-03-06 14:05:00,45.3,14.1,29.70,SE,137,3.1,4.9,28,0.00,,,0.08,VWS V14.00,2013-03-06 19:05:00,
2013-03-06 14:10:00,45.0,13.8,29.70,East,82,8.7,8.7,28,0.00,,,0.08,VWS V14.00,2013-03-06 19:10:00,
2013-03-06 14:15:00,44.6,13.5,29.70,WSW,258,0.0,2.7,28,0.00,,,0.08,VWS V14.00,2013-03-06 19:15:00,
2013-03-06 14:20:00,44.8,15.3,29.72,SSE,168,4.9,5.4,30,0.00,,,0.08,VWS V14.00,2013-03-06 19:20:00,
2013-03-06 14:25:00,44.8,14.5,29.72,SSW,199,2.7,3.6,29,0.00,,,0.08,VWS V14.00,2013-03-06 19:25:00,
2013-03-06 14:30:00,44.6,13.5,29.72,SSW,206,3.6,3.6,28,0.00,,,0.08,VWS V14.00,2013-03-06 19:30:00,
2013-03-06 14:35:00,44.8,14.5,29.75,SW,218,2.2,7.2,29,0.00,,,0.08,VWS V14.00,2013-03-06 19:35:00,
2013-03-06 14:40:00,44.8,13.7,29.75,SSW,208,2.7,4.0,28,0.00,,,0.08,VWS V14.00,2013-03-06 19:40:00,
2013-03-06 14:45:00,44.8,14.5,29.75,SSW,204,2.2,3.6,29,0.00,,,0.08,VWS V14.00,2013-03-06 19:45:00,
2013-03-06 14:50:00,44.8,14.5,29.75,SSW,196,5.8,7.6,29,0.00,,,0.08,VWS V14.00,2013-03-06 19:50:00,
2013-03-06 14:55:00,44.8,13.7,29.75,South,169,6.3,6.3,28,0.00,,,0.08,VWS V14.00,2013-03-06 19:55:00,
2013-03-06 15:00:00,44.8,14.5,29.75,ESE,123,3.6,3.6,29,0.00,,,0.08,VWS V14.00,2013-03-06 20:00:00,
2013-03-06 15:05:00,44.8,14.5,29.78,SW,218,2.7,3.6,29,0.00,,,0.08,VWS V14.00,2013-03-06 20:05:00,
2013-03-06 15:10:00,44.6,13.5,29.78,SW,228,3.1,3.1,28,0.00,,,0.08,VWS V14.00,2013-03-06 20:10:00,
2013-03-06 15:15:00,44.6,13.5,29.78,WSW,248,4.0,4.9,28,0.00,,,0.08,VWS V14.00,2013-03-06 20:15:00,
2013-03-06 15:20:00,44.2,14.0,29.78,East,88,3.6,6.3,29,0.00,,,0.08,VWS V14.00,2013-03-06 20:20:00,
2013-03-06 15:25:00,44.1,13.9,29.78,SSW,193,3.1,4.9,29,0.00,,,0.08,VWS V14.00,2013-03-06 20:25:00,
2013-03-06 15:30:00,44.1,13.9,29.78,SSW,213,2.7,2.7,29,0.00,,,0.08,VWS V14.00,2013-03-06 20:30:00,
2013-03-06 15:35:00,44.1,13.9,29.81,SSW,213,3.6,4.0,29,0.00,,,0.08,VWS V14.00,2013-03-06 20:35:00,
2013-03-06 15:41:00,44.1,13.9,29.81,WNW,293,2.7,3.6,29,0.00,,,0.08,VWS V14.00,2013-03-06 20:41:00,
2013-03-06 15:46:00,44.1,14.6,29.81,South,173,2.2,3.1,30,0.00,,,0.08,VWS V14.00,2013-03-06 20:46:00,
2013-03-06 15:51:00,44.2,14.8,29.81,WSW,242,3.1,4.0,30,0.00,,,0.08,VWS V14.00,2013-03-06 20:51:00,
2013-03-06 15:56:00,44.2,14.8,29.81,SSE,168,2.7,4.9,30,0.00,,,0.08,VWS V14.00,2013-03-06 20:56:00,
2013-03-06 16:01:00,44.2,14.0,29.81,WSW,245,2.2,3.1,29,0.00,,,0.08,VWS V14.00,2013-03-06 21:01:00,
2013-03-06 16:06:00,44.1,14.6,29.81,South,178,3.6,3.6,30,0.00,,,0.08,VWS V14.00,2013-03-06 21:06:00,
2013-03-06 16:11:00,43.7,13.5,29.81,SW,234,3.6,4.0,29,0.00,,,0.08,VWS V14.00,2013-03-06 21:11:00,
2013-03-06 16:16:00,44.1,14.6,29.81,ENE,59,7.6,7.6,30,0.00,,,0.08,VWS V14.00,2013-03-06 21:16:00,
2013-03-06 16:21:00,43.7,14.3,29.84,SW,227,5.4,5.4,30,0.00,,,0.08,VWS V14.00,2013-03-06 21:21:00,
2013-03-06 16:26:00,43.2,13.1,29.84,SSW,203,4.0,5.8,29,0.00,,,0.08,VWS V14.00,2013-03-06 21:26:00,
2013-03-06 16:31:00,43.0,12.9,29.84,SW,219,4.0,5.4,29,0.00,,,0.08,VWS V14.00,2013-03-06 21:31:00,
2013-03-06 16:36:00,43.2,13.8,29.84,SW,217,3.1,4.0,30,0.00,,,0.08,VWS V14.00,2013-03-06 21:36:00,
2013-03-06 16:41:00,43.2,13.8,29.84,SE,142,3.1,5.4,30,0.00,,,0.08,VWS V14.00,2013-03-06 21:41:00,
2013-03-06 16:46:00,42.6,13.4,29.84,East,85,5.8,5.8,30,0.00,,,0.08,VWS V14.00,2013-03-06 21:46:00,
2013-03-06 16:51:00,41.9,12.7,29.87,SSE,157,5.4,5.4,30,0.00,,,0.08,VWS V14.00,2013-03-06 21:51:00,
2013-03-06 16:56:00,41.5,13.2,29.87,SSE,164,5.4,8.1,31,0.00,,,0.08,VWS V14.00,2013-03-06 21:56:00,
2013-03-06 17:01:00,41.4,12.3,29.87,SSE,156,3.1,4.9,30,0.00,,,0.08,VWS V14.00,2013-03-06 22:01:00,
2013-03-06 17:06:00,41.2,12.9,29.87,SE,128,5.8,5.8,31,0.00,,,0.08,VWS V14.00,2013-03-06 22:06:00,
2013-03-06 17:11:00,41.2,12.9,29.87,SSW,198,0.0,0.0,31,0.00,,,0.08,VWS V14.00,2013-03-06 22:11:00,
2013-03-06 17:16:00,41.2,12.9,29.87,SSW,195,5.4,5.4,31,0.00,,,0.08,VWS V14.00,2013-03-06 22:16:00,
2013-03-06 17:21:00,41.2,12.9,29.90,SE,144,4.0,7.2,31,0.00,,,0.08,VWS V14.00,2013-03-06 22:21:00,
2013-03-06 17:27:00,41.4,13.0,29.90,SW,224,3.1,3.1,31,0.00,,,0.08,VWS V14.00,2013-03-06 22:27:00,
2013-03-06 17:32:00,41.4,13.0,29.90,WSW,240,0.0,0.0,31,0.00,,,0.08,VWS V14.00,2013-03-06 22:32:00,
2013-03-06 17:37:00,41.2,12.9,29.90,SSE,147,3.1,3.6,31,0.00,,,0.08,VWS V14.00,2013-03-06 22:37:00,
2013-03-06 17:42:00,41.2,12.9,29.90,SSE,166,3.1,3.1,31,0.00,,,0.08,VWS V14.00,2013-03-06 22:42:00,
2013-03-06 17:47:00,40.8,14.6,29.90,East,86,3.1,3.1,34,0.00,,,0.08,VWS V14.00,2013-03-06 22:47:00,
2013-03-06 17:52:00,40.5,13.6,29.90,South,175,0.0,0.0,33,0.00,,,0.08,VWS V14.00,2013-03-06 22:52:00,
2013-03-06 17:57:00,40.3,14.8,29.90,SE,124,0.0,3.6,35,0.00,,,0.08,VWS V14.00,2013-03-06 22:57:00,
2013-03-06 18:02:00,39.9,15.8,29.90,ESE,118,2.7,2.7,37,0.00,,,0.08,VWS V14.00,2013-03-06 23:02:00,
2013-03-06 18:07:00,39.7,14.3,29.93,South,183,2.2,3.6,35,0.00,,,0.08,VWS V14.00,2013-03-06 23:07:00,
2013-03-06 18:12:00,39.6,16.1,29.93,East,101,5.4,6.3,38,0.00,,,0.08,VWS V14.00,2013-03-06 23:12:00,
2013-03-06 18:17:00,39.2,16.3,29.93,WSW,239,4.9,5.4,39,0.00,,,0.08,VWS V14.00,2013-03-06 23:17:00,
2013-03-06 18:22:00,39.0,16.2,29.96,ESE,113,4.0,4.0,39,0.00,,,0.08,VWS V14.00,2013-03-06 23:22:00,
2013-03-06 18:27:00,38.8,16.6,29.96,SE,138,3.6,3.6,40,0.00,,,0.08,VWS V14.00,2013-03-06 23:27:00,
2013-03-06 18:32:00,38.7,15.9,29.96,South,169,2.7,4.9,39,0.00,,,0.08,VWS V14.00,2013-03-06 23:32:00,
2013-03-06 18:37:00,38.7,15.9,29.96,East,89,3.1,3.6,39,0.00,,,0.08,VWS V14.00,2013-03-06 23:37:00,
2013-03-06 18:42:00,38.7,15.3,29.96,SE,133,0.0,5.4,38,0.00,,,0.08,VWS V14.00,2013-03-06 23:42:00,
2013-03-06 18:47:00,38.5,15.7,29.96,SW,222,2.7,4.9,39,0.00,,,0.08,VWS V14.00,2013-03-06 23:47:00,
2013-03-06 18:52:00,38.3,15.5,29.99,WSW,246,0.0,0.0,39,0.00,,,0.08,VWS V14.00,2013-03-06 23:52:00,
2013-03-06 18:57:00,38.3,14.3,29.99,South,178,2.2,3.6,37,0.00,,,0.08,VWS V14.00,2013-03-06 23:57:00,
2013-03-06 19:02:00,38.1,14.8,29.99,North,0,3.1,3.1,38,0.00,,,0.08,VWS V14.00,2013-03-07 00:02:00,
2013-03-06 19:07:00,37.9,15.2,29.99,ESE,106,4.9,4.9,39,0.00,,,0.08,VWS V14.00,2013-03-07 00:07:00,
2013-03-06 19:12:00,37.9,14.6,29.99,East,96,3.1,3.6,38,0.00,,,0.08,VWS V14.00,2013-03-07 00:12:00,
2013-03-06 19:17:00,37.8,15.0,29.99,SW,233,4.0,5.4,39,0.00,,,0.08,VWS V14.00,2013-03-07 00:17:00,
2013-03-06 19:22:00,37.6,14.9,29.99,SE,130,3.1,4.0,39,0.00,,,0.08,VWS V14.00,2013-03-07 00:22:00,
2013-03-06 19:27:00,37.6,14.9,29.99,SE,130,0.0,3.1,39,0.00,,,0.08,VWS V14.00,2013-03-07 00:27:00,
2013-03-06 19:32:00,37.6,14.9,29.99,SSW,198,2.7,4.0,39,0.00,,,0.08,VWS V14.00,2013-03-07 00:32:00,
2013-03-06 19:37:00,37.4,14.7,29.99,SSE,151,2.7,3.6,39,0.00,,,0.08,VWS V14.00,2013-03-07 00:37:00,
2013-03-06 19:42:00,37.4,14.7,29.99,ESE,120,3.6,4.0,39,0.00,,,0.08,VWS V14.00,2013-03-07 00:42:00,
2013-03-06 19:47:00,37.4,14.7,29.99,South,183,4.0,4.0,39,0.00,,,0.08,VWS V14.00,2013-03-07 00:47:00,
2013-03-06 19:52:00,37.2,15.1,30.02,SE,128,6.3,6.3,40,0.00,,,0.08,VWS V14.00,2013-03-07 00:52:00,
2013-03-06 19:57:00,37.2,15.1,30.02,SSE,160,3.1,4.0,40,0.00,,,0.08,VWS V14.00,2013-03-07 00:57:00,
2013-03-06 20:03:00,37.4,15.3,30.02,SE,137,0.0,2.2,40,0.00,,,0.08,VWS V14.00,2013-03-07 01:03:00,
2013-03-06 20:08:00,37.4,14.7,30.02,SW,225,3.6,3.6,39,0.00,,,0.08,VWS V14.00,2013-03-07 01:08:00,
2013-03-06 20:13:00,37.6,14.9,30.02,SSW,195,2.7,2.7,39,0.00,,,0.08,VWS V14.00,2013-03-07 01:13:00,
2013-03-06 20:18:00,37.6,14.9,30.02,SSW,212,3.6,3.6,39,0.00,,,0.08,VWS V14.00,2013-03-07 01:18:00,
2013-03-06 20:23:00,37.6,14.9,30.02,South,190,0.0,0.0,39,0.00,,,0.08,VWS V14.00,2013-03-07 01:23:00,
2013-03-06 20:28:00,37.4,14.7,30.02,SSW,211,0.0,0.0,39,0.00,,,0.08,VWS V14.00,2013-03-07 01:28:00,
2013-03-06 20:33:00,37.0,15.0,30.02,West,275,0.0,0.0,40,0.00,,,0.08,VWS V14.00,2013-03-07 01:33:00,
2013-03-06 20:38:00,37.0,15.0,30.02,WNW,286,0.0,0.0,40,0.00,,,0.08,VWS V14.00,2013-03-07 01:38:00,
2013-03-06 20:43:00,36.9,14.8,30.02,WSW,257,2.7,2.7,40,0.00,,,0.08,VWS V14.00,2013-03-07 01:43:00,
2013-03-06 20:48:00,36.7,14.6,30.02,SSW,210,3.6,3.6,40,0.00,,,0.08,VWS V14.00,2013-03-07 01:48:00,
2013-03-06 20:53:00,36.7,14.6,30.02,NNW,327,3.1,4.0,40,0.00,,,0.08,VWS V14.00,2013-03-07 01:53:00,
2013-03-06 20:58:00,36.9,14.8,30.02,SSW,210,0.0,2.2,40,0.00,,,0.08,VWS V14.00,2013-03-07 01:58:00,
2013-03-06 21:03:00,36.9,14.8,30.02,NE,38,3.6,3.6,40,0.00,,,0.08,VWS V14.00,2013-03-07 02:03:00,
2013-03-06 21:08:00,36.7,14.6,30.02,West,274,0.0,0.0,40,0.00,,,0.08,VWS V14.00,2013-03-07 02:08:00,
2013-03-06 21:13:00,36.5,14.5,30.02,WSW,238,0.0,0.0,40,0.00,,,0.08,VWS V14.00,2013-03-07 02:13:00,
2013-03-06 21:18:00,36.7,14.6,30.05,SSE,165,2.7,3.1,40,0.00,,,0.08,VWS V14.00,2013-03-07 02:18:00,
2013-03-06 21:23:00,36.7,14.6,30.05,SSE,159,2.7,3.6,40,0.00,,,0.08,VWS V14.00,2013-03-07 02:23:00,
2013-03-06 21:28:00,36.5,14.5,30.05,South,181,4.9,4.9,40,0.00,,,0.08,VWS V14.00,2013-03-07 02:28:00,
2013-03-06 21:33:00,36.5,14.5,30.05,SSW,192,0.0,3.1,40,0.00,,,0.08,VWS V14.00,2013-03-07 02:33:00,
2013-03-06 21:38:00,36.7,15.2,30.05,ENE,74,0.0,0.0,41,0.00,,,0.08,VWS V14.00,2013-03-07 02:38:00,
2013-03-06 21:43:00,36.7,15.2,30.05,East,88,0.0,2.2,41,0.00,,,0.08,VWS V14.00,2013-03-07 02:43:00,
2013-03-06 21:48:00,36.7,14.6,30.05,West,273,0.0,3.6,40,0.00,,,0.08,VWS V14.00,2013-03-07 02:48:00,
2013-03-06 21:53:00,37.0,15.0,30.05,SSW,208,4.0,6.7,40,0.00,,,0.08,VWS V14.00,2013-03-07 02:53:00,
2013-03-06 21:58:00,37.0,15.0,30.05,WSW,238,2.7,2.7,40,0.00,,,0.08,VWS V14.00,2013-03-07 02:58:00,
2013-03-06 22:03:00,37.2,15.1,30.05,SSE,154,0.0,0.0,40,0.00,,,0.08,VWS V14.00,2013-03-07 03:03:00,
2013-03-06 22:08:00,37.2,15.1,30.05,WNW,296,2.2,2.2,40,0.00,,,0.08,VWS V14.00,2013-03-07 03:08:00,
2013-03-06 22:13:00,37.2,15.1,30.05,ESE,114,0.0,0.0,40,0.00,,,0.08,VWS V14.00,2013-03-07 03:13:00,
2013-03-06 22:18:00,37.2,15.1,30.05,ENE,76,0.0,0.0,40,0.00,,,0.08,VWS V14.00,2013-03-07 03:18:00,
2013-03-06 22:23:00,37.2,15.1,30.05,SE,142,0.0,0.0,40,0.00,,,0.08,VWS V14.00,2013-03-07 03:23:00,
2013-03-06 22:28:00,37.0,15.5,30.05,East,89,3.1,3.1,41,0.00,,,0.08,VWS V14.00,2013-03-07 03:28:00,
2013-03-06 22:33:00,37.0,15.5,30.05,SE,124,0.0,0.0,41,0.00,,,0.08,VWS V14.00,2013-03-07 03:33:00,
2013-03-06 22:39:00,37.0,15.5,30.05,SSE,163,3.6,4.0,41,0.00,,,0.08,VWS V14.00,2013-03-07 03:39:00,
2013-03-06 22:44:00,37.2,15.7,30.05,NE,34,0.0,0.0,41,0.00,,,0.08,VWS V14.00,2013-03-07 03:44:00,
2013-03-06 22:49:00,37.2,15.1,30.05,SSE,160,3.6,3.6,40,0.00,,,0.08,VWS V14.00,2013-03-07 03:49:00,
2013-03-06 22:54:00,37.4,14.7,30.05,South,179,0.0,0.0,39,0.00,,,0.08,VWS V14.00,2013-03-07 03:54:00,
2013-03-06 22:59:00,37.4,14.7,30.05,East,92,0.0,3.1,39,0.00,,,0.08,VWS V14.00,2013-03-07 03:59:00,
2013-03-06 23:04:00,37.6,14.9,30.05,WNW,293,0.0,0.0,39,0.00,,,0.08,VWS V14.00,2013-03-07 04:04:00,
2013-03-06 23:09:00,37.6,14.9,30.05,South,187,3.1,4.0,39,0.00,,,0.08,VWS V14.00,2013-03-07 04:09:00,
2013-03-06 23:14:00,37.6,15.5,30.05,ENE,64,0.0,3.6,40,0.00,,,0.08,VWS V14.00,2013-03-07 04:14:00,
2013-03-06 23:19:00,37.6,15.5,30.05,NE,47,4.9,4.9,40,0.00,,,0.08,VWS V14.00,2013-03-07 04:19:00,
2013-03-06 23:24:00,37.6,15.5,30.05,SSE,156,2.7,2.7,40,0.00,,,0.08,VWS V14.00,2013-03-07 04:24:00,
2013-03-06 23:29:00,37.6,14.9,30.05,SSW,207,2.2,4.0,39,0.00,,,0.08,VWS V14.00,2013-03-07 04:29:00,
2013-03-06 23:34:00,37.8,15.0,30.08,SSE,149,5.8,6.3,39,0.00,,,0.08,VWS V14.00,2013-03-07 04:34:00,
2013-03-06 23:39:00,37.9,15.2,30.08,SW,216,4.5,4.5,39,0.00,,,0.08,VWS V14.00,2013-03-07 04:39:00,
2013-03-06 23:44:00,37.9,15.2,30.08,SSW,206,0.0,0.0,39,0.00,,,0.08,VWS V14.00,2013-03-07 04:44:00,
2013-03-06 23:49:00,37.9,15.2,30.05,SSW,211,2.7,3.1,39,0.00,,,0.08,VWS V14.00,2013-03-07 04:49:00,
2013-03-06 23:54:00,37.9,15.2,30.05,SE,142,0.0,8.7,39,0.00,,,0.08,VWS V14.00,2013-03-07 04:54:00,
2013-03-06 23:59:00,37.9,15.2,30.05,SW,220,0.0,0.0,39,0.00,,,0.08,VWS V14.00,2013-03-07 04:59:00,